Theta_e
286 287 287 287 286 287 287 287 287 287 287 288 288 288 289 289 289 292 295 298 300 303 306 308 310 311 312 313 315 317 318 319 321 323 326 328 330 332 336 334 333 332 331
286 285 285 286 285 286 286 287 287 286 286 287 287 288 287 288 290 291 294 295 299 301 303 306 307 308 310 312 314 315 317 318 320 322 324 327 328 330 335 333 332 331 330
285 284 284 284 284 285 286 286 286 286 285 286 286 287 287 288 289 291 293 292 295 297 299 302 304 306 308 310 312 313 316 317 318 320 323 327 329 329 333 332 331 330 328
285 283 283 283 284 285 285 285 285 284 283 284 284 285 286 287 289 293 290 292 294 293 295 298 301 302 304 307 309 312 314 315 317 320 321 327 329 327 333 331 330 328 327
285 283 282 283 284 284 284 285 284 283 282 283 283 285 285 286 289 288 288 291 291 292 292 295 297 298 300 303 306 309 312 314 316 318 321 327 327 331 332 330 328 327 326
284 282 281 282 283 282 283 284 283 283 282 282 282 283 283 286 287 287 287 290 290 291 291 291 291 292 296 300 302 306 308 312 314 317 320 326 328 333 330 329 327 326 325
283 281 280 281 281 282 282 283 283 281 280 281 280 280 282 284 286 285 287 288 288 289 290 290 291 291 291 296 299 302 305 310 314 317 321 327 329 331 329 328 325 324 322
282 281 280 280 281 281 281 282 282 279 280 281 279 279 277 280 283 284 286 286 287 289 289 289 291 290 288 288 290 297 301 308 314 319 323 327 331 329 328 326 324 322 320
282 281 280 280 280 281 281 281 280 279 278 281 282 279 276 275 278 283 284 285 286 287 288 289 290 288 286 287 290 292 298 304 313 320 325 327 330 328 326 325 322 320 319
280 281 281 280 280 281 280 281 282 279 281 279 281 283 283 282 277 276 281 283 285 286 288 289 288 286 286 287 297 295 297 303 315 322 323 325 325 324 323 321 321 319 318
280 280 280 280 280 280 280 280 280 280 280 280 280 281 282 282 281 278 276 279 284 286 288 289 287 285 287 286 307 303 306 309 315 317 318 319 319 319 320 320 318 317 316
279 278 279 279 280 280 280 281 280 280 280 280 281 281 281 279 279 278 277 279 280 284 287 289 286 285 286 286 295 305 309 311 312 312 312 313 314 315 315 315 315 314 313
276 276 278 278 279 280 280 281 279 280 280 280 280 280 281 282 282 281 280 279 280 284 285 288 286 285 285 286 287 296 303 307 309 310 310 311 312 313 312 312 312 311 309
275 277 277 278 279 280 280 280 279 279 280 280 279 280 280 282 283 282 281 280 279 281 284 284 287 286 285 285 287 289 296 301 305 306 307 307 308 308 308 307 307 306 306
276 277 278 278 279 279 280 279 279 278 279 279 279 279 280 282 283 283 283 284 282 278 280 284 283 286 285 285 286 285 289 295 299 302 303 304 305 305 304 304 305 306 307
276 276 277 277 278 279 279 279 279 278 278 279 279 279 279 282 282 283 283 285 284 283 280 285 284 285 285 286 285 285 286 291 294 297 299 301 302 303 304 305 305 305 304
276 276 277 277 278 278 279 279 278 277 277 278 278 278 279 282 281 282 284 284 284 284 281 284 286 286 285 285 285 285 285 286 293 295 297 298 299 300 300 300 300 299 299
276 276 277 277 277 277 278 278 277 276 277 277 277 277 278 281 280 281 284 283 283 284 283 281 284 285 284 285 285 284 285 286 287 293 296 298 298 297 297 297 296 296 296
275 276 276 275 276 277 277 278 277 276 276 276 277 277 278 280 280 283 283 282 283 284 283 283 282 285 285 285 285 285 284 285 286 289 292 294 296 295 295 294 294 294 294
273 273 274 274 275 276 279 278 277 276 276 276 277 278 278 280 280 282 283 283 283 282 281 281 281 282 283 285 285 283 282 284 284 287 288 289 290 292 293 293 293 293 294
272 271 271 271 273 276 280 278 276 275 276 275 277 278 279 281 283 283 283 283 282 281 281 279 279 280 280 281 282 284 282 283 284 285 285 285 286 286 289 291 291 293 294
270 271 270 270 271 277 281 281 278 275 276 276 276 277 278 280 282 283 284 285 284 282 280 279 279 278 279 280 282 283 283 282 280 285 284 283 285 284 285 288 292 293 294
271 270 268 271 270 274 281 280 278 276 275 275 277 277 278 279 281 281 282 283 283 284 284 282 279 279 279 280 282 282 281 281 280 282 284 281 284 283 284 286 291 292 293
270 271 269 270 270 273 280 280 278 276 275 275 277 276 278 278 280 280 279 279 280 280 282 283 282 282 282 283 283 284 282 281 281 283 283 280 283 282 284 285 290 291 293
271 271 271 270 269 269 280 280 277 275 276 274 277 277 278 278 281 282 278 277 277 279 283 285 285 285 284 285 285 285 281 281 278 280 282 282 281 279 282 284 285 289 291
273 274 273 270 269 269 278 279 277 275 273 274 273 277 278 279 281 281 278 277 275 277 279 280 281 282 283 282 283 282 281 282 280 278 280 281 279 282 276 282 285 286 286
Wind_Speed
5 5 6 5 5 7 9 9 10 12 13 15 16 16 16 17 16 10 7 18 26 30 33 35 34 35 35 32 32 29 27 26 25 24 26 28 21 22 35 34 33 31 28
5 5 6 6 6 8 9 9 10 11 11 13 15 16 18 18 16 15 10 10 23 29 32 33 34 35 35 33 31 32 26 25 25 26 25 24 16 24 38 36 34 32 30
5 6 5 5 5 8 10 9 10 11 11 12 14 16 16 17 16 15 8 11 11 25 30 32 34 34 34 34 32 31 29 25 25 25 26 27 25 18 40 37 35 33 30
6 6 5 5 6 7 8 9 10 10 11 11 12 15 14 15 16 9 13 11 9 12 19 30 33 34 33 33 31 30 29 27 26 26 26 26 23 23 41 39 36 34 31
6 5 5 5 7 7 6 8 9 10 12 12 13 13 16 13 11 12 17 15 15 14 12 23 33 32 32 32 32 30 29 29 27 27 28 24 20 20 40 38 36 34 30
6 5 5 6 6 6 7 8 11 10 10 12 15 13 14 12 11 14 15 13 14 18 17 18 15 15 32 32 31 31 30 29 30 28 29 21 20 35 39 36 35 33 30
5 6 4 5 6 6 8 10 8 13 11 13 12 14 11 8 10 17 11 13 16 18 19 17 14 12 14 31 33 31 30 31 31 29 28 22 24 33 38 37 36 33 31
5 6 6 5 6 6 7 9 9 8 7 12 13 11 12 14 11 14 11 14 19 16 17 19 18 21 17 14 22 33 31 30 30 28 29 24 29 33 39 39 37 32 30
5 5 6 5 6 5 6 8 6 11 10 11 14 7 8 11 22 11 18 16 20 16 17 19 21 24 20 19 25 25 33 31 28 28 27 22 27 38 39 39 33 32 27
4 5 6 6 5 4 6 7 8 4 8 12 10 8 8 12 11 18 16 18 18 18 20 16 20 25 24 21 26 30 28 29 29 23 39 38 37 37 35 36 31 31 26
4 5 6 6 6 4 6 7 7 6 4 7 8 10 11 10 11 11 18 22 20 16 16 15 20 24 32 32 20 25 35 26 23 41 39 39 37 33 33 33 31 29 25
3 6 5 5 6 5 6 7 6 7 7 8 8 9 10 11 14 13 15 18 20 19 15 14 18 21 27 27 35 38 38 45 46 40 40 39 37 35 33 32 30 27 23
3 4 5 5 4 5 6 7 6 7 8 8 9 9 9 9 10 8 11 15 17 16 13 13 14 19 20 22 26 36 43 46 42 40 37 37 32 34 31 30 28 25 21
3 3 4 5 6 6 6 6 4 6 8 6 9 9 9 10 11 11 10 15 15 12 14 21 11 19 18 20 33 41 28 41 41 42 37 37 36 33 31 29 26 23 20
1 3 4 5 6 6 6 6 5 6 7 6 6 9 8 10 11 11 11 11 11 13 12 14 11 17 16 17 26 23 25 41 40 38 35 35 32 30 28 25 23 20 20
3 4 4 5 5 6 6 6 5 5 7 6 7 9 9 11 12 11 11 11 10 10 8 8 10 14 16 15 22 21 22 30 36 34 32 30 27 26 24 25 22 22 19
3 4 4 5 5 6 7 6 7 7 8 8 9 10 11 13 11 12 10 11 11 10 9 8 7 11 14 16 16 16 16 15 16 29 28 27 27 27 27 24 23 22 19
4 3 4 5 5 6 8 7 8 7 8 9 10 11 11 10 13 13 11 14 12 11 10 11 8 9 10 12 13 15 11 12 13 26 27 25 27 27 24 24 23 19 16
3 4 5 5 5 6 6 6 7 7 7 7 8 9 11 13 13 12 12 12 11 10 10 8 8 7 5 8 8 9 12 11 10 22 24 26 26 26 25 22 18 17 16
4 4 3 4 4 6 6 7 9 7 6 7 8 9 9 12 13 12 12 11 12 10 10 8 8 7 7 7 5 7 8 8 9 9 16 19 21 23 23 21 18 16 16
4 4 3 4 4 4 6 7 7 6 6 7 7 9 9 12 21 19 9 10 11 9 8 8 8 7 8 6 8 3 4 5 9 8 8 10 9 10 11 15 13 18 19
4 5 3 3 4 5 13 14 9 5 7 8 9 9 10 12 16 23 21 20 15 11 10 8 8 9 9 8 5 4 4 3 3 7 5 9 8 9 8 8 18 18 20
4 5 3 4 3 5 13 13 10 5 6 6 9 10 10 10 13 14 17 17 13 19 16 7 8 7 6 9 8 6 6 5 3 4 3 6 5 8 8 7 18 19 20
5 4 4 4 4 4 12 13 9 4 4 4 7 8 11 13 15 16 12 12 11 11 10 6 5 6 6 7 7 3 3 2 2 4 4 3 4 6 5 6 18 18 18
5 4 4 5 4 4 11 12 7 3 4 4 7 6 9 12 20 22 12 13 12 10 12 15 15 15 14 15 12 3 4 2 3 3 5 2 3 2 5 8 7 18 18
6 5 6 4 4 3 9 12 8 4 4 3 5 7 14 15 18 20 10 10 12 10 10 9 7 8 9 9 14 7 4 3 1 2 3 3 3 2 3 4 7 7 6
Wind_Direction
340 330 330 333 336 348 327 326 328 328 326 325 321 320 322 319 308 295 295 298 315 315 317 318 313 310 304 298 288 283 275 275 270 268 261 255 246 259 169 173 169 166 168
344 341 328 331 340 340 323 326 333 331 327 326 321 322 321 314 313 308 299 292 319 325 322 315 315 309 303 297 293 285 274 278 271 268 269 250 242 265 168 169 166 165 165
349 338 323 333 338 331 325 331 331 328 328 323 320 322 319 319 311 301 331 316 332 322 319 317 314 309 305 301 295 288 279 273 273 272 274 255 229 265 168 165 163 162 163
355 344 331 332 334 331 329 336 334 329 332 325 331 320 323 318 310 336 331 319 326 316 313 311 313 313 307 301 293 285 276 269 267 269 271 262 251 272 165 163 161 157 159
360 346 332 334 333 333 335 334 337 338 335 332 329 321 319 312 323 342 332 320 324 316 310 305 305 308 306 301 295 285 278 268 262 263 260 254 234 213 156 157 154 153 156
3 344 347 335 342 333 331 337 336 339 337 331 324 327 308 308 317 338 320 325 323 321 314 303 299 298 297 296 294 286 273 263 254 253 253 246 238 179 151 151 149 151 153
12 345 351 339 339 333 329 341 339 344 343 339 329 335 328 312 326 329 319 326 328 324 312 307 301 296 300 295 294 285 270 258 248 244 241 233 205 159 146 147 146 147 147
19 1 349 340 330 331 336 344 353 348 344 349 344 315 332 328 336 327 332 332 328 324 316 312 310 311 305 290 278 272 260 247 239 232 227 209 182 156 143 141 140 141 140
30 12 347 338 330 332 345 341 2 359 345 348 354 345 335 330 321 357 339 331 329 326 318 319 323 318 317 305 290 262 238 229 228 213 214 159 141 142 136 126 129 130 140
49 25 350 340 337 335 344 338 344 341 331 344 342 341 322 314 328 324 334 333 331 328 330 332 330 326 327 310 288 192 192 195 202 178 111 106 115 111 114 120 127 120 127
68 39 352 343 347 343 338 330 329 331 321 334 331 336 337 320 324 322 320 333 329 337 336 336 337 335 346 360 24 119 144 173 147 109 109 110 108 115 118 112 111 111 109
55 39 354 350 347 340 340 333 330 337 346 337 332 343 341 333 335 331 326 329 326 334 339 349 346 351 350 4 15 63 96 94 88 92 91 95 103 102 103 103 100 102 104
44 14 357 352 339 337 342 330 338 340 348 339 341 343 336 340 325 323 324 326 327 335 347 0 353 0 358 3 16 31 59 74 82 87 92 94 98 98 100 102 103 103 102
61 352 349 351 345 343 341 333 334 346 343 338 333 346 336 345 333 330 332 331 334 343 352 1 1 4 3 6 13 26 37 58 70 75 80 83 83 87 91 94 95 99 104
76 3 8 360 348 348 350 339 340 343 339 335 342 347 347 342 335 335 335 338 336 340 351 356 355 357 4 12 12 20 29 45 57 65 70 74 83 89 93 99 101 105 100
59 36 15 0 0 353 345 341 343 345 343 340 355 349 356 343 340 340 340 347 344 344 345 346 2 357 3 13 12 24 24 41 51 60 65 71 79 86 88 87 91 90 88
61 46 13 13 14 350 332 351 349 356 344 347 350 354 356 352 343 341 345 351 353 349 351 357 358 359 12 18 18 20 24 29 44 59 66 69 70 75 76 78 76 72 67
70 45 20 32 17 345 331 7 357 351 348 355 352 354 352 355 350 344 348 356 356 353 350 353 2 358 18 1 20 24 21 28 30 39 51 69 69 69 69 68 67 69 73
55 43 47 34 1 331 337 9 357 347 348 357 350 353 343 356 352 350 350 359 355 355 357 1 360 0 352 7 16 23 22 28 29 34 39 50 64 67 65 67 72 72 67
103 75 42 29 349 327 342 24 1 344 352 0 354 353 345 356 350 358 349 0 352 358 359 4 4 5 9 358 11 32 31 25 27 33 41 42 44 51 60 59 59 63 60
122 100 70 29 347 350 345 26 8 344 2 3 357 355 345 354 359 6 358 360 0 360 3 4 9 3 10 5 11 356 26 20 36 22 42 34 35 36 32 39 43 50 53
121 99 71 55 14 12 7 20 16 4 18 11 7 356 344 352 356 5 7 9 16 7 8 8 358 6 1 357 341 12 11 359 18 6 29 43 30 36 16 34 42 50 51
129 107 75 59 32 339 16 27 30 23 31 13 21 358 348 0 354 1 5 5 9 13 12 4 0 2 346 348 339 12 37 49 45 345 11 40 18 42 24 9 41 39 42
136 119 94 57 39 341 20 32 36 33 29 26 23 356 348 1 2 2 3 7 4 1 354 4 8 357 357 354 356 3 26 27 23 18 8 58 357 35 18 20 32 36 38
128 116 106 80 47 340 21 36 32 30 22 19 24 12 352 4 5 9 5 5 5 359 343 4 19 19 23 23 24 358 7 43 26 355 6 55 352 343 18 22 8 21 28
133 124 110 97 73 4 0 36 51 27 15 358 360 15 7 9 11 12 13 358 4 354 343 353 358 8 14 16 28 27 358 35 57 47 331 61 340 357 29 346 14 10 359